�N����,����,�~����,�C��,���x,�C��,����,���ϕ���,�ő�u�ԕ���,�ő厞����,���˗�,�I�_���x,�n�����x,�ő啗���N��,DTYPE
"21/04/16","00:10",0.0,10.3,83.1,1017.5,292.3,1.5,1.9,301.1,0.00,7.6,130.0,"00:01:20",1
"21/04/16","00:20",0.0,10.4,83.6,1017.5,281.2,1.7,2.0,287.0,0.00,7.8,130.0,"00:17:12",1
"21/04/16","00:30",0.0,10.2,83.9,1017.3,285.1,1.2,2.0,293.1,0.00,7.6,130.0,"00:20:16",1
"21/04/16","00:40",0.0,10.0,84.3,1017.3,291.9,1.5,1.9,299.7,0.00,7.5,130.0,"00:39:36",1
"21/04/16","00:50",0.0,9.8,84.7,1017.3,287.5,1.2,1.9,316.3,0.00,7.4,130.0,"00:40:48",1
"21/04/16","01:00",0.0,9.9,85.3,1017.1,291.0,1.5,2.0,263.2,0.00,7.6,130.0,"00:56:56",1
"21/04/16","01:10",0.0,10.0,85.6,1016.8,283.0,1.6,2.4,300.7,0.00,7.7,130.0,"01:04:32",1
"21/04/16","01:20",0.0,10.0,86.0,1016.8,283.6,1.8,2.7,262.3,0.00,7.8,130.0,"01:10:40",1
"21/04/16","01:30",0.0,10.0,86.3,1016.6,290.4,1.8,2.1,317.1,0.00,7.9,130.0,"01:27:20",1
"21/04/16","01:40",0.0,9.6,86.5,1016.8,294.9,1.5,2.1,325.6,0.00,7.5,130.0,"01:30:24",1
"21/04/16","01:50",0.0,9.3,87.0,1017.1,292.5,1.7,2.4,291.1,0.00,7.3,130.0,"01:47:44",1
"21/04/16","02:00",0.0,9.0,87.2,1016.6,291.9,1.2,2.0,288.8,0.00,7.0,130.0,"01:50:16",1
"21/04/16","02:10",0.0,8.8,87.5,1016.8,282.4,1.3,1.7,283.7,0.00,6.9,130.0,"02:05:28",1
"21/04/16","02:20",0.0,8.9,88.0,1016.6,284.8,1.6,2.7,308.9,0.00,7.1,130.0,"02:19:36",1
"21/04/16","02:30",0.0,9.2,88.4,1016.6,295.7,1.8,2.4,323.1,0.00,7.4,130.0,"02:20:16",1
"21/04/16","02:40",0.0,9.7,88.7,1016.6,283.1,1.6,2.0,271.2,0.00,8.0,130.0,"02:34:00",1
"21/04/16","02:50",0.0,10.1,88.9,1016.6,307.0,1.3,1.9,292.2,0.00,8.4,130.0,"02:42:08",1
"21/04/16","03:00",0.0,10.3,89.0,1016.6,317.7,1.6,2.7,337.0,0.00,8.6,130.0,"02:59:28",1
"21/04/16","03:10",0.0,10.4,89.1,1016.8,308.4,1.2,1.9,327.2,0.00,8.7,130.0,"03:00:48",1
"21/04/16","03:20",0.0,10.5,89.2,1016.8,319.1,1.8,2.5,309.0,0.00,8.8,130.0,"03:18:00",1
"21/04/16","03:30",0.0,10.7,89.3,1016.8,300.6,1.2,1.9,297.6,0.00,9.1,130.0,"03:26:48",1
"21/04/16","03:40",0.0,10.8,89.4,1016.8,294.1,1.1,1.7,302.6,0.00,9.2,130.0,"03:33:52",1
"21/04/16","03:50",0.0,11.0,89.4,1017.3,299.1,1.5,2.0,307.3,0.00,9.4,130.0,"03:46:48",1
"21/04/16","04:00",0.0,11.4,89.4,1017.5,289.2,1.2,1.8,312.9,0.00,9.8,130.0,"03:50:32",1
"21/04/16","04:10",0.0,11.6,89.2,1017.1,279.0,1.0,1.6,310.5,0.00,9.9,130.0,"04:09:28",1
"21/04/16","04:20",0.0,11.6,89.1,1017.1,309.5,1.1,1.7,316.5,0.00,9.9,130.0,"04:18:08",1
"21/04/16","04:30",0.0,11.9,89.0,1017.1,281.9,0.6,1.0,302.1,0.00,10.2,130.0,"04:26:36",1
"21/04/16","04:40",0.0,12.0,88.6,1017.1,180.6,0.5,1.2,71.4,0.00,10.2,130.0,"04:34:42",1
"21/04/16","04:50",0.0,12.3,87.9,1017.1,112.8,0.6,1.3,109.0,0.00,10.4,130.0,"04:41:06",1
"21/04/16","05:00",0.0,12.6,86.8,1016.8,99.4,0.7,2.0,108.8,0.00,10.5,130.0,"04:57:36",1
"21/04/16","05:10",0.0,12.8,85.5,1017.1,88.3,0.8,2.4,119.5,0.00,10.5,130.0,"05:03:22",1
"21/04/16","05:20",0.0,12.9,84.1,1016.8,99.1,1.0,2.9,109.6,0.00,10.3,130.0,"05:16:02",1
"21/04/16","05:30",0.0,13.0,82.8,1017.3,106.5,2.0,3.4,122.5,0.00,10.2,130.0,"05:28:40",1
"21/04/16","05:40",0.0,13.1,81.5,1017.3,110.0,1.8,3.4,110.4,0.00,10.0,130.0,"05:33:46",1
"21/04/16","05:50",0.0,13.1,80.8,1017.3,113.1,1.6,4.0,120.9,0.00,9.9,130.0,"05:48:24",1
"21/04/16","06:00",0.0,13.1,80.4,1017.5,118.4,1.5,3.4,105.0,0.00,9.8,130.0,"05:50:24",1
"21/04/16","06:10",0.0,13.2,80.1,1017.3,112.6,1.7,3.7,113.6,0.00,9.9,130.0,"06:06:24",1
"21/04/16","06:20",0.0,13.2,79.7,1017.8,100.7,1.7,3.5,103.0,0.00,9.8,130.0,"06:17:46",1
"21/04/16","06:30",0.0,13.2,79.4,1017.3,102.5,1.6,2.9,103.3,0.00,9.8,130.0,"06:25:12",1
"21/04/16","06:40",0.0,13.3,79.1,1017.8,101.9,1.8,3.4,119.9,0.00,9.8,130.0,"06:33:52",1
"21/04/16","06:50",0.0,13.3,79.0,1018.0,108.8,1.7,3.4,92.0,0.00,9.8,130.0,"06:40:08",1
"21/04/16","07:00",0.0,13.3,79.0,1017.8,102.7,0.8,2.1,89.5,0.00,9.8,130.0,"06:53:52",1
"21/04/16","07:10",0.0,13.4,78.8,1018.0,92.0,0.8,1.6,104.1,0.01,9.8,130.0,"07:05:28",1
"21/04/16","07:20",0.0,13.5,78.6,1017.8,113.9,1.7,3.6,117.4,0.02,9.9,130.0,"07:18:24",1
"21/04/16","07:30",0.0,13.5,78.6,1018.0,118.1,1.3,3.1,121.9,0.01,9.9,130.0,"07:29:36",1
"21/04/16","07:40",0.0,13.5,78.7,1018.5,96.7,1.0,2.5,109.1,0.01,9.9,130.0,"07:37:12",1
"21/04/16","07:50",0.0,13.5,79.2,1018.7,117.3,1.5,2.9,106.2,0.02,10.0,130.0,"07:46:32",1
"21/04/16","08:00",0.0,13.5,80.4,1018.5,110.6,1.7,3.7,132.5,0.06,10.2,130.0,"07:56:24",1
"21/04/16","08:10",0.0,13.4,81.0,1018.7,95.5,1.0,2.0,118.8,0.04,10.2,130.0,"08:02:32",1
"21/04/16","08:20",0.0,13.3,81.4,1019.2,126.4,0.8,1.9,121.3,0.01,10.2,130.0,"08:19:12",1
"21/04/16","08:30",0.0,13.4,82.2,1018.5,108.7,1.1,2.0,108.5,0.03,10.5,130.0,"08:24:00",1
"21/04/16","08:40",0.0,13.5,82.7,1018.5,79.3,1.2,2.7,108.9,0.08,10.7,130.0,"08:31:36",1
"21/04/16","08:50",0.0,13.4,82.8,1018.7,71.0,1.0,2.2,11.5,0.03,10.6,130.0,"08:43:12",1
"21/04/16","09:00",0.0,13.4,83.1,1019.0,59.1,0.8,1.9,61.1,0.03,10.6,130.0,"08:51:44",1
"21/04/16","09:10",0.0,13.3,83.6,1018.7,83.2,1.0,2.5,115.6,0.03,10.6,130.0,"09:02:16",1
"21/04/16","09:20",0.2,13.2,84.4,1018.7,67.2,0.6,1.2,62.9,0.04,10.7,130.0,"09:16:16",1
"21/04/16","09:30",0.0,13.2,85.1,1019.2,2.2,0.5,1.8,64.7,0.03,10.8,130.0,"09:23:04",1
"21/04/16","09:40",0.2,13.2,86.0,1019.0,109.4,0.6,1.2,125.3,0.04,11.0,130.0,"09:35:38",1
"21/04/16","09:50",0.0,13.1,86.8,1019.2,78.5,0.7,1.6,13.1,0.04,11.0,130.0,"09:46:26",1
"21/04/16","10:00",0.0,13.3,87.8,1019.0,105.3,1.0,2.1,125.7,0.09,11.4,130.0,"09:50:24",1
"21/04/16","10:10",0.0,14.3,88.4,1018.7,68.1,0.7,2.0,118.4,0.33,12.4,130.0,"10:00:08",1
"21/04/16","10:20",0.0,14.7,87.6,1019.0,88.6,1.3,3.9,103.9,0.28,12.7,130.0,"10:19:28",1
"21/04/16","10:30",0.0,14.5,86.4,1019.2,99.6,1.5,2.8,86.6,0.15,12.3,130.0,"10:21:20",1
"21/04/16","10:40",0.0,14.8,85.6,1019.2,66.7,1.5,3.6,125.3,0.17,12.5,130.0,"10:39:52",1
"21/04/16","10:50",0.0,14.7,84.3,1019.0,102.8,1.8,3.9,102.6,0.09,12.1,130.0,"10:47:04",1
"21/04/16","11:00",0.0,14.8,83.2,1019.4,101.2,1.6,4.7,120.9,0.06,12.0,130.0,"10:54:40",1
"21/04/16","11:10",0.0,14.8,82.1,1019.2,96.7,1.7,4.1,119.5,0.03,11.8,130.0,"11:03:28",1
"21/04/16","11:20",0.0,14.8,81.3,1019.2,62.5,1.3,3.3,106.9,0.03,11.7,130.0,"11:17:28",1
"21/04/16","11:30",0.0,14.8,80.7,1019.0,99.2,1.7,3.4,116.8,0.03,11.6,130.0,"11:23:52",1
"21/04/16","11:40",0.0,14.9,80.2,1018.5,95.9,1.7,4.7,120.6,0.05,11.6,130.0,"11:30:02",1
"21/04/16","11:50",0.0,15.0,79.7,1018.5,108.9,1.7,4.1,119.0,0.06,11.6,130.0,"11:46:56",1
"21/04/16","12:00",0.0,15.1,79.2,1018.2,98.5,2.0,4.9,118.5,0.07,11.6,130.0,"11:55:52",1
"21/04/16","12:10",0.0,15.4,78.7,1018.2,96.9,1.5,3.5,107.0,0.10,11.8,130.0,"12:09:36",1
"21/04/16","12:20",0.0,15.4,77.7,1018.5,84.0,1.6,3.5,112.6,0.08,11.6,130.0,"12:19:20",1
"21/04/16","12:30",0.0,15.5,77.1,1018.5,72.5,1.3,2.9,27.5,0.06,11.5,130.0,"12:20:24",1
"21/04/16","12:40",0.0,15.5,77.0,1018.2,98.2,1.5,4.5,108.7,0.06,11.5,130.0,"12:39:28",1
"21/04/16","12:50",0.0,15.7,76.7,1018.2,91.4,1.7,3.9,115.6,0.10,11.7,130.0,"12:45:28",1
"21/04/16","13:00",0.0,15.9,76.1,1018.2,68.1,1.2,2.8,107.7,0.08,11.7,130.0,"12:52:48",1
"21/04/16","13:10",0.0,16.0,75.8,1018.0,94.5,1.6,3.6,106.8,0.10,11.8,130.0,"13:09:20",1
"21/04/16","13:20",0.0,16.0,75.4,1018.0,100.4,1.7,3.7,68.0,0.07,11.7,130.0,"13:10:56",1
"21/04/16","13:30",0.0,15.9,75.4,1018.2,84.7,1.3,3.6,90.5,0.04,11.6,130.0,"13:22:00",1
"21/04/16","13:40",0.0,15.9,75.4,1018.0,89.1,1.5,3.5,114.8,0.04,11.6,130.0,"13:36:40",1
"21/04/16","13:50",0.0,16.0,75.3,1018.2,101.1,1.7,5.4,124.1,0.05,11.7,130.0,"13:47:12",1
"21/04/16","14:00",0.0,16.0,75.4,1018.0,101.6,1.3,2.5,111.0,0.03,11.7,130.0,"13:58:56",1
"21/04/16","14:10",0.0,16.3,74.6,1017.8,107.3,2.1,4.8,101.3,0.06,11.8,130.0,"14:03:20",1
"21/04/16","14:20",0.0,16.3,73.8,1018.2,78.3,1.3,3.6,52.3,0.03,11.7,130.0,"14:19:12",1
"21/04/16","14:30",0.0,16.3,74.0,1018.0,92.6,1.2,3.1,105.0,0.05,11.7,130.0,"14:28:00",1
"21/04/16","14:40",0.0,16.3,74.0,1018.2,77.6,1.3,2.5,82.4,0.06,11.7,130.0,"14:36:00",1
"21/04/16","14:50",0.0,16.0,75.5,1017.8,61.5,1.3,3.9,55.9,0.12,11.7,130.0,"14:44:56",1
"21/04/16","15:00",0.0,16.3,76.4,1017.8,65.1,1.3,2.8,35.7,0.19,12.2,130.0,"14:56:32",1
"21/04/16","15:10",0.0,16.5,76.4,1017.8,70.1,1.3,4.4,22.7,0.17,12.4,130.0,"15:06:40",1
"21/04/16","15:20",0.0,16.3,76.3,1017.5,94.9,1.5,3.1,126.2,0.12,12.2,130.0,"15:15:20",1
"21/04/16","15:30",0.0,16.6,76.1,1017.8,87.8,1.6,4.7,108.3,0.14,12.4,130.0,"15:24:56",1
"21/04/16","15:40",0.0,16.7,74.6,1018.0,85.4,1.8,4.3,113.3,0.13,12.2,130.0,"15:38:24",1
"21/04/16","15:50",0.0,16.6,74.1,1017.8,84.7,1.7,4.2,96.6,0.10,12.0,130.0,"15:44:16",1
"21/04/16","16:00",0.0,16.4,74.3,1017.3,93.6,2.1,4.9,132.0,0.06,11.9,130.0,"15:50:48",1
"21/04/16","16:10",0.0,16.4,74.6,1018.0,102.7,1.8,4.0,121.3,0.07,11.9,130.0,"16:00:08",1
"21/04/16","16:20",0.0,16.2,74.8,1017.3,84.2,2.1,5.1,123.3,0.07,11.8,130.0,"16:18:16",1
"21/04/16","16:30",0.0,16.3,75.1,1017.3,105.2,2.1,5.5,116.7,0.07,11.9,130.0,"16:27:12",1
"21/04/16","16:40",0.0,16.3,75.3,1017.5,95.3,1.3,3.6,112.6,0.03,12.0,130.0,"16:35:44",1
"21/04/16","16:50",0.0,16.1,75.6,1017.5,104.0,2.5,4.2,120.0,0.03,11.8,130.0,"16:42:16",1
"21/04/16","17:00",0.0,16.1,75.6,1017.3,99.5,2.1,4.1,105.6,0.04,11.8,130.0,"16:57:44",1
"21/04/16","17:10",0.0,16.1,75.3,1017.8,108.3,2.1,4.2,128.6,0.04,11.8,130.0,"17:06:16",1
"21/04/16","17:20",0.0,16.0,75.6,1017.3,115.3,2.1,4.8,121.4,0.04,11.7,130.0,"17:15:20",1
"21/04/16","17:30",0.0,16.0,75.6,1017.5,102.6,2.1,4.0,102.2,0.03,11.7,130.0,"17:26:56",1
"21/04/16","17:40",0.0,15.9,75.5,1017.5,105.1,2.3,4.8,113.2,0.02,11.6,130.0,"17:31:52",1
"21/04/16","17:50",0.0,15.9,75.5,1017.8,103.1,1.7,3.6,115.7,0.01,11.6,130.0,"17:45:36",1
"21/04/16","18:00",0.0,15.9,75.7,1017.8,97.2,1.7,3.5,121.5,0.00,11.7,130.0,"17:50:32",1
"21/04/16","18:10",0.0,15.8,75.9,1018.0,88.9,1.8,3.7,70.2,0.00,11.6,130.0,"18:04:40",1
"21/04/16","18:20",0.0,15.7,76.2,1017.8,98.4,1.5,3.2,79.4,0.00,11.6,130.0,"18:18:00",1
"21/04/16","18:30",0.0,15.6,76.5,1017.5,103.1,1.6,3.2,96.5,0.00,11.5,130.0,"18:25:52",1
"21/04/16","18:40",0.0,15.5,76.9,1017.8,105.6,2.0,3.7,119.0,0.00,11.5,130.0,"18:30:40",1
"21/04/16","18:50",0.0,15.5,77.2,1018.0,98.7,1.6,3.5,107.3,0.00,11.6,130.0,"18:42:16",1
"21/04/16","19:00",0.0,15.5,77.5,1017.8,108.5,1.8,4.0,90.8,0.00,11.6,130.0,"18:56:08",1
"21/04/16","19:10",0.0,15.3,78.4,1017.8,103.6,2.0,4.1,119.8,0.00,11.6,130.0,"19:06:00",1
"21/04/16","19:20",0.0,14.9,80.0,1017.8,90.2,1.3,3.2,109.3,0.00,11.5,130.0,"19:11:20",1
"21/04/16","19:30",0.0,14.5,81.9,1017.8,83.9,1.0,2.1,108.6,0.00,11.5,130.0,"19:24:56",1
"21/04/16","19:40",0.0,14.3,83.6,1018.0,95.1,0.8,2.4,111.8,0.00,11.6,130.0,"19:37:12",1
"21/04/16","19:50",0.0,14.2,84.9,1018.0,92.3,0.8,1.9,118.7,0.00,11.7,130.0,"19:46:56",1
"21/04/16","20:00",0.0,14.1,85.7,1018.0,24.3,0.6,1.6,95.1,0.00,11.8,130.0,"19:59:52",1
"21/04/16","20:10",0.0,14.1,86.3,1018.0,76.8,0.8,2.9,120.2,0.00,11.9,130.0,"20:04:32",1
"21/04/16","20:20",0.0,14.1,86.7,1018.0,100.9,1.0,2.4,115.3,0.00,12.0,130.0,"20:17:52",1
"21/04/16","20:30",0.0,14.1,86.9,1017.8,278.0,0.7,1.8,339.5,0.00,12.0,130.0,"20:20:16",1
"21/04/16","20:40",0.0,14.1,87.2,1018.2,61.2,0.6,2.2,97.5,0.00,12.0,130.0,"20:39:04",1
"21/04/16","20:50",0.0,14.3,87.2,1018.0,105.7,1.5,3.9,117.9,0.00,12.2,130.0,"20:44:08",1
"21/04/16","21:00",0.2,14.4,87.1,1018.2,115.8,1.7,4.7,153.7,0.00,12.3,130.0,"20:54:48",1
"21/04/16","21:10",0.0,14.2,87.3,1018.0,115.6,2.0,3.4,112.0,0.00,12.2,130.0,"21:01:52",1
"21/04/16","21:20",0.0,14.2,87.5,1017.8,111.4,1.7,3.3,127.5,0.00,12.2,130.0,"21:16:56",1
"21/04/16","21:30",0.0,14.2,87.8,1017.8,115.0,1.8,3.7,117.3,0.00,12.2,130.0,"21:21:04",1
"21/04/16","21:40",0.0,14.1,88.1,1018.0,100.9,1.6,3.6,101.0,0.00,12.2,130.0,"21:38:48",1
"21/04/16","21:50",0.0,14.1,88.3,1017.8,105.4,2.0,3.6,110.3,0.00,12.2,130.0,"21:45:20",1
"21/04/16","22:00",0.0,14.1,88.4,1017.8,105.8,1.8,3.5,99.1,0.00,12.3,130.0,"21:54:32",1
"21/04/16","22:10",0.0,14.1,88.4,1018.0,110.4,1.7,3.6,121.6,0.00,12.3,130.0,"22:00:56",1
"21/04/16","22:20",0.2,13.9,88.6,1017.8,88.8,1.3,3.1,38.8,0.00,12.1,130.0,"22:19:20",1
"21/04/16","22:30",0.0,13.8,89.0,1017.8,125.8,1.2,3.6,123.9,0.00,12.1,130.0,"22:28:08",1
"21/04/16","22:40",0.0,13.7,89.3,1017.5,126.8,1.1,2.9,104.6,0.00,12.0,130.0,"22:30:10",1
"21/04/16","22:50",0.6,13.6,89.7,1017.5,132.0,0.7,1.7,171.7,0.00,12.0,130.0,"22:46:32",1
"21/04/16","23:00",0.4,13.6,90.1,1017.5,126.8,0.8,2.8,141.2,0.00,12.0,130.0,"22:55:28",1
"21/04/16","23:10",0.2,13.6,90.5,1017.5,93.6,0.7,2.0,113.7,0.00,12.1,130.0,"23:03:04",1
"21/04/16","23:20",0.2,13.5,90.8,1017.3,330.2,0.3,1.2,104.9,0.00,12.1,130.0,"23:14:02",1
"21/04/16","23:30",0.2,13.5,91.2,1017.3,112.8,0.5,1.6,123.8,0.00,12.1,130.0,"23:20:48",1
"21/04/16","23:40",0.0,13.5,91.5,1017.1,98.3,0.6,1.1,84.6,0.00,12.2,130.0,"23:31:04",1
"21/04/16","23:50",0.2,13.5,91.8,1017.1,85.4,0.5,1.7,113.2,0.00,12.2,130.0,"23:47:04",1
"21/04/16","24:00",0.2,13.6,92.1,1017.3,117.7,0.7,1.8,13.9,0.00,12.4,130.0,"23:50:40",1
